Location: Bikkas?vev?lap?lem
(16.3808°N, 80.7012°E)
Time: 15:13:02
(UTC+00:00)

Daily predictions for brighter satellites

Satellite Brightness Start Highest point End
(mag) Time Altitude Azimuth Time Altitude Azimuth Time Altitude Azimuth
Cosmos 1908 Rocket 4.4 12:23:36 10° NNE 12:27:20 28° E 12:31:02 10° SE
SL-16 R/B 2.3 12:22:31 10° SSW 12:28:11 89° WNW 12:33:53 10° NNE
Cosmos 2278 Rocket 2.8 12:24:30 10° N 12:29:34 34° ENE 12:34:37 10° SE
COSMO-SKYMED 1 2.6 12:26:11 10° NNE 12:30:31 85° E 12:34:52 10° S
Okean 1-7 3.0 12:28:14 10° S 12:32:29 68° E 12:36:46 10° N
Cosmos 1190 Rocket 4.0 12:27:30 10° S 12:32:40 66° ESE 12:37:49 10° NNE
USA 116 4.5 12:29:19 10° NNE 12:34:18 53° E 12:38:52 10° S
NOAA 12 4.2 12:29:30 10° SSE 12:34:43 58° ENE 12:39:54 10° N
STARLINK-80 3.4 12:31:54 10° SW 12:35:42 85° SE 12:39:29 10° NE
Cosmos 1627 Rocket 4.5 12:36:07 10° S 12:42:15 87° E 12:48:22 10° N
Cosmos 1666 3.1 12:38:57 10° NNE 12:42:27 39° E 12:45:56 10° SSE
Cosmos 1954 Rocket 4.4 12:39:28 10° S 12:44:17 41° E 12:49:06 10° NNE
SL-8 R/B 4.2 12:41:37 10° NNW 12:46:04 37° NE 12:50:31 10° ESE
CENTAUR R/B 4.3 12:44:23 10° NW 12:52:39 50° WSW 13:00:49 10° S
Abrixas rocket 3.7 12:51:17 10° WSW 12:53:55 27° NW 12:56:32 10° NNE
Cosmos 1241 Rocket 4.5 12:47:32 10° SSW 12:54:00 77° ESE 13:00:22 10° NNE
STARLINK-48 3.4 12:51:12 10° SW 12:55:04 86° NW 12:58:14 15° NE
Atlas Centaur 2 3.3 12:50:33 10° NW 12:58:16 53° NNE 13:05:21 15° E
Cosmos 2221 Rocket 3.7 12:57:15 10° S 13:01:41 56° E 13:06:04 10° NNE
Delta 128 3.5 12:58:15 10° WSW 13:03:07 89° SE 13:05:52 23° ENE
Cosmos 1743 3.6 13:02:32 18° NE 13:04:36 28° E 13:07:58 10° SE
ERBS 2.9 13:07:29 10° NW 13:10:46 58° WSW 13:14:05 10° SSE
GEOS 3 Rocket 4.3 13:08:00 22° ENE 13:10:48 37° ESE 13:15:40 10° S
Envisat 3.5 13:06:09 10° S 13:11:10 63° W 13:16:10 10° NNW
CZ-3B R/B 2.2 13:06:49 10° WSW 13:12:04 81° SSE 13:17:44 24° ENE
CZ-3C R/B 2.7 13:08:58 10° W 13:12:29 75° N 13:22:05 21° ENE
SWIFT 2.7 13:08:25 10° W 13:12:33 50° N 13:14:13 31° NE
USA 267 3.3 13:06:49 10° SE 13:13:10 56° NE 13:19:31 10° NNW
Cosmos 1939 Rocket 4.1 13:11:38 10° SE 13:13:57 24° ESE 13:13:57 24° ESE
CZ-4C R/B 1.9 13:10:48 10° S 13:15:13 52° ESE 13:17:25 28° NE
CSL-04 Rocket 3.7 13:10:15 10° SSE 13:15:20 50° ENE 13:20:24 10° N
YAOGAN 6 3.0 13:13:35 10° S 13:17:01 61° W 13:20:29 10° NNW
Sich 1 Rocket 3.7 13:13:39 10° N 13:17:51 46° E 13:22:03 10° SSE
ADEOS Rocket 3.3 13:16:45 26° ENE 13:19:03 36° E 13:24:16 10° SSE
GPS 2-12 Rocket1 3.6 13:16:03 10° W 13:20:22 51° SSW 13:23:11 20° SE
Cosmos 1782 Rocket 3.4 13:17:27 10° N 13:21:47 78° E 13:26:05 10° S
STARLINK-37 4.5 13:18:58 10° S 13:22:30 30° ESE 13:22:36 30° ESE
STARLINK-35 4.4 13:25:22 10° S 13:28:49 34° SE 13:28:49 34° SE
Okean 3 3.4 13:25:11 10° S 13:29:23 82° W 13:32:14 20° N
CSL-04 Debris 4.0 13:24:33 10° SSE 13:30:01 76° ENE 13:35:27 10° N
STARLINK-51 4.3 13:26:58 10° SSW 13:30:26 36° SE 13:30:26 36° SE
FUSE 4.4 13:26:12 10° WNW 13:31:19 44° NNE 13:32:21 39° NE
STARLINK-30 4.3 13:28:36 10° SSW 13:32:02 37° SE 13:32:02 37° SE
Lacrosse 5 2.1 13:28:27 10° SW 13:33:30 68° WNW 13:35:53 31° NNE
STARLINK-33 4.2 13:30:13 10° SSW 13:33:38 39° SE 13:33:38 39° SE
Fermi 3.6 13:30:17 10° WSW 13:34:21 72° NNW 13:34:48 64° NNE
STARLINK 4.5 13:31:37 10° S 13:34:44 33° SE 13:34:44 33° SE
Cosmos 1900 4.2 13:30:37 10° NNW 13:35:26 64° ENE 13:40:15 10° SSE
STARLINK-50 4.2 13:31:49 10° SSW 13:35:13 41° SE 13:35:13 41° SE
STARLINK-56 4.1 13:35:04 10° SSW 13:38:23 43° SSE 13:38:23 43° SSE
Starlink (trailer) 4.1 13:36:42 10° SSW 13:39:59 45° SSE 13:39:59 45° SSE
ARIANE 5 R/B 4.3 13:37:59 10° WSW 13:42:12 15° SSW 13:44:22 10° SSE
STARLINK-38 4.1 13:38:20 10° SSW 13:41:36 46° SSE 13:41:36 46° SSE
Cosmos 2266 Rocket 3.9 13:37:24 10° S 13:43:46 79° E 13:48:18 21° N
STARLINK-65 4.1 13:39:57 10° SSW 13:43:10 47° SSE 13:43:10 47° SSE
GOES 2 Rocket 4.1 13:38:14 10° WNW 13:46:46 87° NNE 13:49:22 42° ESE
ATLAS 5 CENTAUR R/B 2.6 13:42:54 10° W 13:47:07 64° S 14:00:41 14° ESE
S3M 3.9 13:45:31 32° NNE 13:48:20 59° E 13:54:19 10° SSE
STARLINK-69 4.1 13:44:53 10° SSW 13:48:02 51° S 13:48:02 51° S
CZ-4 R/B 3.2 13:46:31 10° SSW 13:50:03 30° W 13:53:33 10° NW
STARLINK-66 4.2 13:46:29 10° SSW 13:49:32 48° S 13:49:32 48° S
NOAA 11 4.1 13:45:59 10° SSE 13:51:25 86° WSW 13:56:52 10° NNW
GPS 2-18 Rocket1 3.8 13:48:17 10° WNW 13:51:12 49° W 13:51:12 49° W
Cosmos 1674 Rocket 3.7 13:49:52 10° S 13:53:48 69° S 13:53:48 69° S
STARLINK-70 4.3 13:51:26 10° SSW 13:54:20 46° SSW 13:54:20 46° SSW
STARLINK-68 4.3 13:53:09 10° SW 13:56:06 48° SW 13:56:06 48° SW
Cosmos 1943 3.3 13:52:23 10° SSW 13:58:01 74° WNW 13:59:35 48° N
STARLINK-58 4.5 13:54:43 10° SW 13:57:32 44° SW 13:57:32 44° SW
YAOGAN 1 4.1 13:54:57 10° SSW 13:58:54 36° W 14:02:53 10° NNW
Cosmos 1553 Rocket 4.2 13:55:46 10° N 14:02:07 72° W 14:08:29 10° S
Centaur AC-64 4.3 13:58:09 10° WNW 14:02:29 56° N 14:05:03 45° NE
Meteor 2-9 Rocket 4.1 14:03:19 75° SE 14:03:19 75° SE 14:08:36 10° S
CZ-2D R/B 4.5 13:59:40 10° S 14:02:35 39° SW 14:02:35 39° SW
GPS 2-14 Rocket1 4.5 14:00:43 10° SW 14:02:46 26° SSW 14:02:46 26° SSW
BREEZE-M TANK 4.5 13:59:35 10° SW 14:04:52 83° SE 14:12:07 36° NE
H-2A R/B 3.6 13:32:26 10° WNW 14:12:04 80° SW 14:14:58 44° SE
ATLAS 3B CENTAUR R/B 4.0 14:11:03 10° SW 14:19:15 70° SSE 14:23:40 51° E
Atlas Centaur 2 3.3 14:40:03 10° WNW 14:48:02 66° SW 14:48:02 66° SW
Ariane H10+ 4.3 14:58:06 10° SW 15:36:08 - E 14:59:31 23° SW
Ariane H10+ 4.3 14:58:05 10° SW 15:36:09 - E 14:59:31 23° SW
Ariane H10+ 4.3 14:58:06 10° SW 15:36:09 - E 14:59:31 23° SW
Ariane H10+ 4.3 14:58:05 10° SW 14:59:31 23° SW 14:59:31 23° SW
CZ-3B R/B 3.6 15:01:54 10° W 15:06:30 40° WNW 15:06:30 40° WNW
CZ-3B R/B 4.2 21:11:57 47° SE 21:11:57 47° SE 21:18:57 10° ESE
H-2A ROCKET BODY 4.3 21:50:14 81° NNW 21:51:10 85° NNE 22:58:42 10° ESE
Lacrosse 5 4.4 22:24:06 13° NE 22:24:26 13° NE 22:26:50 10° E
Cosmos 1513 Rocket 4.4 22:40:32 10° S 22:46:28 77° SW 22:46:28 77° SW
Centaur D-1AR AC-39 2.6 22:47:01 75° WNW 22:47:37 90° ENE 23:07:01 10° ESE
FALCON 9 R/B 4.3 22:46:55 24° N 22:47:54 24° N 22:59:11 10° ENE
Meteosat 1 Rocket2 3.8 22:49:17 59° ENE 22:49:17 59° ENE 22:54:30 10° ESE
ATLAS 2AS CENTAUR RB 3.5 22:48:35 22° S 22:49:49 25° SSE 22:58:06 10° E
Delta 202 4.2 22:49:51 44° S 22:50:22 46° SSE 22:55:33 10° E
GPS 2-17 Rocket1 3.2 23:02:01 71° E 23:02:01 71° E 23:06:16 10° ESE
CZ-3B R/B 4.2 23:00:41 29° WSW 23:04:49 35° SW 23:13:27 10° SSE
Gbstr 26 Del rocket 3.3 23:06:54 53° E 23:06:54 53° E 23:10:10 10° SE
Cosmos 1812 3.8 23:07:45 32° NE 23:08:58 43° E 23:12:37 10° SSE
Meteor 2-6 Rocket 4.2 23:08:01 53° NNW 23:09:20 71° W 23:15:12 10° S
PSLV R/B 3.8 23:08:12 10° S 23:12:18 84° SW 23:12:18 84° SW
Meteor 2-11 Rocket 4.3 23:08:22 10° SSW 23:14:22 63° W 23:20:23 10° N
Cosmos 1420 Rocket 3.8 23:10:23 10° SSW 23:15:37 85° WNW 23:20:50 10° NNE
Meteor PRIRODA 3.5 23:18:27 70° NE 23:18:48 82° ESE 23:22:26 10° S
Timation 1 Rocket 4.2 23:13:10 10° SSW 23:19:07 88° WNW 23:25:04 10° NNE
SL-16 R/B 2.6 23:15:52 18° N 23:20:08 62° ENE 23:25:43 10° SSE
GPS 2-15 Rocket1 3.2 23:23:16 52° WNW 23:24:13 65° N 23:29:08 10° ENE
Cosmos 2034 Rocket 4.2 23:23:19 10° SSW 23:29:16 47° W 23:35:18 10° NNW
Meteor 1-10 Rocket 4.5 23:27:01 30° NW 23:29:35 50° W 23:35:17 10° SSW
Cosmos 2237 Rocket 3.2 23:31:26 27° WSW 23:31:26 27° WSW 23:35:42 10° SSW
Hubble Space Telescope 2.9 23:28:53 10° SSW 23:32:18 25° SSE 23:35:42 10° E
Orbus 7S? 3.9 23:29:46 10° SW 23:36:07 44° WNW 23:39:17 10° NNE
Cosmos 1862 Rocket 3.5 23:32:56 18° N 23:36:14 76° W 23:40:41 10° S
Cosmos 44 3.4 23:32:13 10° SSW 23:37:15 79° ESE 23:42:01 10° NNE
Okean O Rocket 3.0 23:34:26 10° NNE 23:38:35 40° E 23:42:44 10° S
BREEZE-M DEB (TANK) 2.7 23:39:50 35° WSW 23:40:24 39° SW 23:45:49 10° SSE
Cosmos 1869 Rocket 3.9 23:36:30 10° S 23:40:46 64° E 23:45:01 10° NNE
Meteor 1-20 Rocket 4.2 23:35:04 10° S 23:40:50 81° W 23:46:41 10° N
Cosmos 1452 Rocket 3.5 23:38:01 10° SSW 23:43:09 56° WNW 23:48:19 10° N
Cosmos 2242 Rocket 3.8 23:40:08 10° N 23:44:36 75° E 23:49:03 10° S
SJ-12 3.8 23:42:19 10° N 23:46:24 76° WNW 23:50:28 10° SSW
STARLINK-56 4.4 23:43:49 17° NNW 23:46:34 46° NE 23:50:25 10° SE
Cosmos 614 Rocket 4.0 23:41:44 10° N 23:46:50 80° ENE 23:51:57 10° SSE
Starlink (trailer) 4.3 23:45:25 17° NNW 23:48:14 48° NE 23:52:06 10° SE
Meteor 1-27 Rocket 3.8 23:42:52 10° NNW 23:48:40 59° W 23:54:22 10° S
STARLINK-38 4.2 23:47:02 17° NNW 23:49:53 51° NE 23:53:47 10° SE
Cosmos 2263 Rocket 2.7 23:45:23 10° SW 23:50:21 33° WNW 23:55:19 10° N
STARLINK-65 4.1 23:48:35 17° NNW 23:51:31 53° NE 23:55:26 10° SE
Cosmos 1340 3.0 23:51:35 10° S 23:55:17 67° E 23:59:01 10° NNE
STARLINK-26 3.1 23:53:19 23° NW 23:55:22 84° WSW 23:58:53 10° SE
